When you browse on this site, cookies collect data to enhance your experience and personalize the content and advertising you see.
Visit our Privacy Policy to learn more. By continuing to use the site, you agree to this use of cookies and data.
  • In Czech Republic
  • List of Countries
  • For 7 days
  • Water Temperature
  • Satellite Maps
  • Weather Map
  • Weather Widgets
  • user-avatar
    Login

    Hourly Weather Morpeth

    Today, 24 January, Thursday

    Time Temperature Precipitation Wind Pressure Humidity
    00:00 0°C° 0.2 mm 3 mps 749 mmHg 84%
    01:00 0°C° 0.4 mm 3 mps 749 mmHg 86%
    02:00 +1°C° 0.4 mm 2 mps 749 mmHg 88%
    03:00 +1°C° 0.4 mm 2 mps 749 mmHg 91%
    04:00 +1°C° 0 mm 2 mps 749 mmHg 91%
    05:00 -1°C° 0 mm 2 mps 749 mmHg 91%
    06:00 -1°C° 0 mm 2 mps 750 mmHg 92%
    07:00 -1°C° 0 mm 2 mps 750 mmHg 91%
    08:00 +1°C° 0 mm 2 mps 750 mmHg 90%
    09:00 +1°C° 0 mm 2 mps 751 mmHg 90%
    10:00 +2°C° 0 mm 2 mps 751 mmHg 87%
    11:00 +2°C° 0 mm 2 mps 751 mmHg 85%
    12:00 +3°C° 0 mm 2 mps 752 mmHg 83%
    13:00 +4°C° 0 mm 1 mps 752 mmHg 84%
    14:00 +4°C° 0 mm 1 mps 752 mmHg 85%
    15:00 +4°C° 0 mm 1 mps 752 mmHg 86%
    16:00 +3°C° 0 mm 1 mps 753 mmHg 86%
    17:00 +2°C° 0 mm 1 mps 753 mmHg 87%
    18:00 +1°C° 0 mm 0 mps 753 mmHg 88%
    19:00 +2°C° 0 mm 1 mps 753 mmHg 88%
    20:00 +2°C° 0 mm 1 mps 754 mmHg 88%
    21:00 +1°C° 0 mm 2 mps 754 mmHg 89%
    22:00 +1°C° 0 mm 2 mps 754 mmHg 88%
    23:00 +1°C° 0 mm 3 mps 754 mmHg 86%

    Tomorrow, 25 January, Friday

    Time Temperature Precipitation Wind Pressure Humidity
    00:00 +1°C° 0 mm 3 mps 753 mmHg 85%
    01:00 +1°C° 0.4 mm 4 mps 753 mmHg 87%
    02:00 +1°C° 0.4 mm 4 mps 753 mmHg 89%
    03:00 +2°C° 0.4 mm 5 mps 752 mmHg 91%
    04:00 +3°C° 0.1 mm 5 mps 752 mmHg 91%
    05:00 +5°C° 0.1 mm 5 mps 752 mmHg 91%
    06:00 +5°C° 0.1 mm 6 mps 751 mmHg 91%
    07:00 +5°C° 0 mm 6 mps 751 mmHg 91%
    08:00 +5°C° 0 mm 7 mps 752 mmHg 91%
    09:00 +5°C° 0 mm 7 mps 752 mmHg 90%
    10:00 +6°C° 0 mm 7 mps 752 mmHg 89%
    11:00 +6°C° 0 mm 8 mps 752 mmHg 88%
    12:00 +7°C° 0 mm 8 mps 752 mmHg 86%
    13:00 +7°C° 0 mm 8 mps 752 mmHg 86%
    14:00 +7°C° 0 mm 8 mps 752 mmHg 86%
    15:00 +7°C° 0 mm 8 mps 752 mmHg 86%
    16:00 +7°C° 0 mm 8 mps 752 mmHg 87%
    17:00 +7°C° 0 mm 8 mps 752 mmHg 88%
    18:00 +7°C° 0 mm 8 mps 751 mmHg 88%
    19:00 +7°C° 0 mm 8 mps 751 mmHg 87%
    20:00 +7°C° 0 mm 9 mps 751 mmHg 86%
    21:00 +7°C° 0 mm 9 mps 751 mmHg 85%
    22:00 +7°C° 0 mm 8 mps 750 mmHg 85%
    23:00 +7°C° 0 mm 8 mps 750 mmHg 85%

    Day after tomorrow, 26 January, Saturday

    Time Temperature Precipitation Wind Pressure Humidity
    00:00 +7°C° 0 mm 8 mps 750 mmHg 85%
    01:00 +7°C° 0 mm 8 mps 749 mmHg 85%
    02:00 +8°C° 0 mm 7 mps 749 mmHg 85%
    03:00 +8°C° 0 mm 7 mps 749 mmHg 86%
    04:00 +8°C° 0 mm 7 mps 748 mmHg 86%
    05:00 +8°C° 0 mm 6 mps 748 mmHg 86%
    06:00 +8°C° 0 mm 6 mps 747 mmHg 87%
    07:00 +8°C° 0.1 mm 6 mps 746 mmHg 87%
    08:00 +8°C° 0.1 mm 6 mps 745 mmHg 87%
    09:00 +8°C° 0.1 mm 6 mps 745 mmHg 87%
    10:00 +8°C° 0 mm 7 mps 743 mmHg 83%
    11:00 +8°C° 0 mm 7 mps 742 mmHg 80%
    12:00 +9°C° 0 mm 8 mps 741 mmHg 76%
    13:00 +7°C° 0.4 mm 8 mps 740 mmHg 79%
    14:00 +7°C° 0.4 mm 9 mps 738 mmHg 81%
    15:00 +7°C° 0.4 mm 9 mps 737 mmHg 83%
    16:00 +6°C° 0.1 mm 8 mps 736 mmHg 82%
    17:00 +5°C° 0.1 mm 7 mps 735 mmHg 81%
    18:00 +4°C° 0.1 mm 6 mps 734 mmHg 80%
    19:00 +5°C° 0 mm 5 mps 733 mmHg 81%
    20:00 +5°C° 0 mm 5 mps 732 mmHg 82%
    21:00 +4°C° 0 mm 4 mps 731 mmHg 83%
    22:00 +4°C° 0.3 mm 4 mps 731 mmHg 85%
    23:00 +4°C° 0.3 mm 3 mps 731 mmHg 86%

    27 January, Sunday

    Time Temperature Precipitation Wind Pressure Humidity
    00:00 +4°C° 0.3 mm 3 mps 731 mmHg 88%
    01:00 +3°C° 1.3 mm 6 mps 731 mmHg 86%
    02:00 +2°C° 1.3 mm 9 mps 732 mmHg 84%
    03:00 +2°C° 1.3 mm 12 mps 732 mmHg 81%
    04:00 +1°C° 1.3 mm 14 mps 733 mmHg 79%
    05:00 +1°C° 1.3 mm 15 mps 734 mmHg 76%
    06:00 +1°C° 1.3 mm 16 mps 735 mmHg 74%
    07:00 0°C° 0.1 mm 16 mps 736 mmHg 73%
    08:00 0°C° 0.1 mm 15 mps 737 mmHg 72%
    09:00 0°C° 0.1 mm 15 mps 738 mmHg 72%
    10:00 0°C° 0.2 mm 15 mps 739 mmHg 70%
    11:00 -1°C° 0.2 mm 15 mps 740 mmHg 68%
    12:00 -1°C° 0.2 mm 15 mps 741 mmHg 66%
    13:00 -1°C° 0 mm 15 mps 742 mmHg 65%
    14:00 -1°C° 0 mm 14 mps 743 mmHg 64%
    15:00 -1°C° 0 mm 14 mps 744 mmHg 62%
    16:00 -2°C° 0 mm 12 mps 745 mmHg 64%
    17:00 -2°C° 0 mm 11 mps 746 mmHg 66%
    18:00 -3°C° 0 mm 10 mps 747 mmHg 67%
    19:00 -3°C° 0 mm 10 mps 747 mmHg 68%
    20:00 -4°C° 0 mm 9 mps 748 mmHg 69%
    21:00 -4°C° 0 mm 9 mps 748 mmHg 70%
    22:00 -4°C° 0 mm 8 mps 748 mmHg 71%
    23:00 -4°C° 0 mm 8 mps 748 mmHg 72%

    28 January, Monday

    Time Temperature Precipitation Wind Pressure Humidity
    00:00 -4°C° 0 mm 8 mps 748 mmHg 73%
    01:00 -3°C° 0 mm 7 mps 748 mmHg 74%
    02:00 -3°C° 0 mm 7 mps 748 mmHg 75%
    03:00 -3°C° 0 mm 7 mps 748 mmHg 76%
    04:00 -3°C° 0 mm 7 mps 748 mmHg 75%
    05:00 -3°C° 0 mm 6 mps 748 mmHg 75%
    06:00 -3°C° 0 mm 6 mps 748 mmHg 74%
    07:00 -2°C° 0 mm 5 mps 748 mmHg 74%
    08:00 -1°C° 0 mm 5 mps 748 mmHg 74%
    09:00 0°C° 0 mm 4 mps 748 mmHg 74%
    10:00 0°C° 0 mm 5 mps 747 mmHg 74%
    11:00 +1°C° 0 mm 5 mps 747 mmHg 73%
    12:00 +2°C° 0 mm 5 mps 746 mmHg 72%
    13:00 +3°C° 0.3 mm 4 mps 746 mmHg 76%
    14:00 +2°C° 0.3 mm 3 mps 745 mmHg 80%
    15:00 +3°C° 0.3 mm 2 mps 745 mmHg 84%
    16:00 +1°C° 0.4 mm 4 mps 745 mmHg 80%
    17:00 0°C° 0.4 mm 7 mps 745 mmHg 77%
    18:00 0°C° 0.4 mm 9 mps 745 mmHg 73%
    19:00 0°C° 0 mm 9 mps 745 mmHg 74%
    20:00 -1°C° 0 mm 8 mps 745 mmHg 74%
    21:00 -2°C° 0 mm 8 mps 745 mmHg 75%
    22:00 -2°C° 0 mm 8 mps 745 mmHg 75%
    23:00 -2°C° 0 mm 8 mps 745 mmHg 76%

    29 January, Tuesday

    Time Temperature Precipitation Wind Pressure Humidity
    00:00 -2°C° 0 mm 8 mps 745 mmHg 76%
    01:00 -2°C° 0 mm 8 mps 745 mmHg 75%
    02:00 -4°C° 0 mm 8 mps 745 mmHg 74%
    03:00 -3°C° 0 mm 7 mps 745 mmHg 74%
    04:00 -3°C° 0 mm 7 mps 745 mmHg 73%
    05:00 -3°C° 0 mm 7 mps 745 mmHg 73%
    06:00 -3°C° 0 mm 7 mps 745 mmHg 73%
    07:00 -3°C° 0 mm 7 mps 745 mmHg 73%
    08:00 -3°C° 0 mm 7 mps 745 mmHg 74%
    09:00 -3°C° 0 mm 7 mps 745 mmHg 75%
    10:00 -2°C° 0 mm 7 mps 745 mmHg 71%
    11:00 -2°C° 0 mm 7 mps 745 mmHg 68%
    12:00 -1°C° 0 mm 7 mps 745 mmHg 64%
    13:00 -1°C° 0 mm 7 mps 745 mmHg 64%
    14:00 -1°C° 0 mm 7 mps 745 mmHg 64%
    15:00 -1°C° 0 mm 7 mps 745 mmHg 64%
    16:00 -2°C° 0 mm 6 mps 746 mmHg 67%
    17:00 -2°C° 0 mm 6 mps 746 mmHg 69%
    18:00 -3°C° 0 mm 6 mps 746 mmHg 72%
    19:00 -3°C° 0 mm 6 mps 747 mmHg 72%
    20:00 -3°C° 0 mm 6 mps 747 mmHg 72%
    21:00 -4°C° 0 mm 6 mps 748 mmHg 72%
    22:00 -4°C° 0 mm 5 mps 748 mmHg 72%
    23:00 -4°C° 0 mm 5 mps 748 mmHg 72%
    Show more